Location: Betz
(49.1556°N, 2.9558°E)
Time: 09:17:10
(UTC+00:00)

Cosmos 1626 - Pass Details

Date: 18 September 2019
Orbit: 493 x 495 km, 82.5° (Epoch: 18 October)

Event Time Altitude Azimuth Distance (km) Brightness Sun altitude
Rises 20:50:58 0° 351° (N) 2,590 6.5 -27.2°
Reaches altitude 10° 20:53:06 10° 352° (N) 1,702 5.4 -27.4°
Enters shadow 20:54:40 24° 355° (N) 1,071 4.2 -27.6°
